Location: Township of Marena
(38.1747°N, 99.6798°W)
Time: 03:42:27
(UTC+00:00)

Aureole 3 - Pass Details

Date: 26 October 2020
Orbit: 382 x 1232 km, 82.5° (Epoch: 27 November)

Event Time Altitude Azimuth Distance (km) Brightness Sun altitude
Rises 00:09:21 0° 157° (SSE) 2,595 6.7 -5.1°
Reaches altitude 10° 00:11:59 10° 140° (SE) 1,600 5.4 -5.6°
Maximum altitude 00:14:28 19° 93° (E) 1,076 4.2 -6.1°
Drops below altitude 10° 00:16:46 10° 44° (NE) 1,459 5.0 -6.6°
Sets 00:19:02 0° 26° (NNE) 2,282 6.1 -7.0°
